Weather History for KAFK - March, 2014

Change the Weather History Date:

Monday, March 31, 2014

  Actual Average (KSDA) Record (KSDA)
Temperature  
Mean Temperature 53 °F -  
Max Temperature 76 °F 60 °F 89 °F (1968)
Min Temperature 29 °F 37 °F 20 °F (1954)
Degree Days  
Heating Degree Days 12    
Growing Degree Days 3 (Base 50)    
Moisture  
Dew Point 30 °F    
Average Humidity 39    
Maximum Humidity 56    
Minimum Humidity 18    
Precipitation  
Precipitation 0.00 in - - ()
Sea Level Pressure  
Sea Level Pressure 29.63 in    
Wind  
Wind Speed 26 mph (WSW)    
Max Wind Speed 39 mph    
Max Gust Speed 46 mph    
Visibility 10 miles    
Events Thunderstorm    
Averages and records for this station are not official NWS values.
T = Trace of Precipitation, MM = Missing Value Source: NWS Daily Summary

Daily Weather History Graph

Daily Weather History Graph

Search for Another Location

Airport or City:

Trip Planner

Search our weather history database for the weather conditions in past years. The results will help you decide how hot, cold, wet, or windy it might be!

Date:

Astronomy

Mar. 31, 2014 Rise Set
Actual Time 7:08 AM CDT 7:47 PM CDT
Civil Twilight 6:41 AM CDT 8:14 PM CDT
Nautical Twilight 6:08 AM CDT 8:47 PM CDT
Astronomical Twilight 5:35 AM CDT 9:20 PM CDT
Moon 7:32 AM CDT (3/31) 9:07 PM CDT (3/31)
Length of Visible Light 13h 33m
Length of Day
12h 38m
New Moon, 1% of the Moon is Illuminated
Mar 31
New Moon
Apr 7
First Quarter
Apr 15
Full
Apr 22
Last Quarter
Apr 29
New

Hourly Weather History & Observations

Time (CDT) Temp. Windchill Dew Point Humidity Pressure Visibility Wind Dir Wind Speed Gust Speed Precip Events Conditions
12:15 AM 62.8 °F - 34.7 °F 35% 29.67 in 10.0 mi South 24.2 mph 28.8 mph N/A   Clear
12:35 AM 62.6 °F - 34.7 °F 35% 29.67 in 10.0 mi South 21.9 mph 27.6 mph N/A   Clear
12:55 AM 62.8 °F - 34.7 °F 35% 29.66 in 10.0 mi South 20.7 mph 27.6 mph N/A   Clear
1:15 AM 62.8 °F - 34.7 °F 35% 29.65 in 10.0 mi South 21.9 mph 27.6 mph N/A   Clear
1:35 AM 63.0 °F - 34.7 °F 35% 29.64 in 10.0 mi South 23.0 mph 29.9 mph N/A   Clear
1:55 AM 62.8 °F - 34.7 °F 35% 29.63 in 10.0 mi South 23.0 mph 28.8 mph N/A   Clear
2:15 AM 63.0 °F - 34.7 °F 35% 29.62 in 10.0 mi South 24.2 mph 31.1 mph N/A   Clear
2:35 AM 63.1 °F - 34.7 °F 35% 29.61 in 10.0 mi South 21.9 mph 31.1 mph N/A   Clear
2:55 AM 63.1 °F - 34.7 °F 35% 29.60 in 10.0 mi South 26.5 mph 32.2 mph N/A   Clear
3:15 AM 63.5 °F - 34.7 °F 34% 29.58 in 10.0 mi South 25.3 mph 35.7 mph N/A   Clear
3:35 AM 63.1 °F - 34.7 °F 35% 29.57 in 10.0 mi South 27.6 mph 34.5 mph N/A   Clear
3:55 AM 63.0 °F - 35.1 °F 35% 29.56 in 10.0 mi South 29.9 mph 39.1 mph N/A   Scattered Clouds
4:15 AM 62.8 °F - 35.6 °F 36% 29.56 in 10.0 mi South 27.6 mph 34.5 mph N/A Thunderstorm Thunderstorm
4:35 AM 61.7 °F - 36.9 °F 40% 29.54 in 10.0 mi South 27.6 mph 33.4 mph N/A   Scattered Clouds
4:55 AM 61.7 °F - 37.0 °F 40% 29.53 in 10.0 mi South 26.5 mph 32.2 mph N/A   Scattered Clouds
5:15 AM 61.9 °F - 36.7 °F 39% 29.52 in 10.0 mi South 24.2 mph 32.2 mph N/A   Scattered Clouds
5:35 AM 61.9 °F - 36.9 °F 39% 29.52 in 10.0 mi South 21.9 mph 33.4 mph N/A   Clear
5:55 AM 62.1 °F - 37.4 °F 40% 29.52 in 10.0 mi South 26.5 mph 33.4 mph N/A   Clear
6:15 AM 62.1 °F - 37.8 °F 41% 29.52 in 10.0 mi South 25.3 mph 32.2 mph N/A   Scattered Clouds
6:35 AM 61.7 °F - 38.3 °F 42% 29.52 in 10.0 mi South 19.6 mph 26.5 mph N/A   Scattered Clouds
6:55 AM 61.0 °F - 38.8 °F 44% 29.52 in 10.0 mi South 24.2 mph 28.8 mph N/A   Clear
7:15 AM 60.6 °F - 39.6 °F 46% 29.51 in 10.0 mi South 25.3 mph 31.1 mph N/A   Clear
7:35 AM 60.6 °F - 40.1 °F 47% 29.50 in 10.0 mi South 26.5 mph 32.2 mph N/A   Clear
7:55 AM 60.3 °F - 40.5 °F 48% 29.49 in 10.0 mi South 27.6 mph 33.4 mph N/A   Clear
8:15 AM 60.3 °F - 41.0 °F 49% 29.48 in 10.0 mi South 25.3 mph 36.8 mph N/A   Clear
8:35 AM 61.0 °F - 41.2 °F 48% 29.48 in 10.0 mi South 23.0 mph 32.2 mph N/A   Clear
8:55 AM 62.1 °F - 41.9 °F 48% 29.47 in 10.0 mi South 28.8 mph 35.7 mph N/A   Clear
9:15 AM 63.3 °F - 42.3 °F 46% 29.46 in 10.0 mi SSW 29.9 mph 40.3 mph N/A   Clear
9:35 AM 64.4 °F - 42.8 °F 45% 29.46 in 10.0 mi SSW 27.6 mph 38.0 mph N/A   Clear
9:55 AM 66.4 °F - 43.2 °F 43% 29.47 in 10.0 mi SSW 27.6 mph 44.9 mph N/A   Clear
10:10 AM 67.8 °F - 43.2 °F 41% 29.47 in 10.0 mi SSW 27.6 mph 34.5 mph N/A   Clear
10:35 AM 70.9 °F - 42.1 °F 35% 29.46 in 10.0 mi SSW 27.6 mph 38.0 mph N/A   Clear
10:55 AM 72.5 °F - 37.8 °F 28% 29.46 in 10.0 mi SSW 29.9 mph 39.1 mph N/A   Clear
11:15 AM 73.6 °F - 36.5 °F 26% 29.46 in 10.0 mi SW 26.5 mph 36.8 mph N/A   Clear
11:35 AM 74.3 °F - 34.3 °F 23% 29.46 in 10.0 mi SW 27.6 mph 35.7 mph N/A   Clear
11:55 AM 76.3 °F - 29.7 °F 18% 29.46 in 7.0 mi WSW 29.9 mph 40.3 mph N/A   Clear
12:15 PM 75.0 °F - 30.6 °F 20% 29.47 in 10.0 mi WSW 31.1 mph 40.3 mph N/A   Clear
12:35 PM 74.7 °F - 32.2 °F 21% 29.48 in 10.0 mi WSW 29.9 mph 35.7 mph N/A   Clear
12:55 PM 75.2 °F - 32.5 °F 21% 29.48 in 10.0 mi WSW 28.8 mph 38.0 mph N/A   Clear
1:15 PM 74.8 °F - 34.2 °F 23% 29.48 in 10.0 mi WSW 24.2 mph 41.4 mph N/A   Clear
1:35 PM 74.5 °F - 34.7 °F 23% 29.49 in 10.0 mi WSW 31.1 mph 39.1 mph N/A   Clear
1:55 PM 73.9 °F - 34.0 °F 23% 29.49 in 10.0 mi WSW 33.4 mph 44.9 mph N/A   Clear
2:15 PM 70.5 °F - 37.8 °F 30% 29.50 in 10.0 mi WNW 25.3 mph 33.4 mph N/A   Clear
2:35 PM 67.8 °F - 37.2 °F 32% 29.51 in 10.0 mi WNW 31.1 mph 38.0 mph N/A   Scattered Clouds
2:55 PM 60.3 °F - 33.6 °F 37% 29.55 in 10.0 mi WNW 34.5 mph 43.7 mph N/A   Clear
3:15 PM 58.6 °F - 32.5 °F 37% 29.57 in 10.0 mi West 33.4 mph 41.4 mph N/A   Clear
3:35 PM 56.3 °F - 31.8 °F 39% 29.59 in 10.0 mi WNW 33.4 mph 46.0 mph N/A   Clear
3:55 PM 55.9 °F - 29.7 °F 37% 29.61 in 10.0 mi West 36.8 mph 43.7 mph N/A   Clear
4:15 PM 54.0 °F - 28.9 °F 38% 29.63 in 10.0 mi WNW 39.1 mph 42.6 mph N/A   Clear
4:35 PM 51.8 °F - 27.7 °F 39% 29.65 in 10.0 mi WNW 35.7 mph 43.7 mph N/A   Clear
4:55 PM 50.4 °F - 27.3 °F 41% 29.67 in 10.0 mi WNW 29.9 mph 42.6 mph N/A   Clear
5:15 PM 50.5 °F - 25.0 °F 37% 29.68 in 10.0 mi WNW 33.4 mph 40.3 mph N/A   Clear
5:35 PM 49.3 °F - 23.2 °F 36% 29.70 in 10.0 mi WNW 25.3 mph 36.8 mph N/A   Clear
5:55 PM 47.5 °F - 22.5 °F 37% 29.72 in 10.0 mi WNW 26.5 mph 35.7 mph N/A   Clear
6:15 PM 46.0 °F 37.2 °F 21.4 °F 38% 29.74 in 10.0 mi WNW 26.5 mph 35.7 mph N/A   Clear
6:35 PM 44.8 °F 36.2 °F 21.0 °F 39% 29.75 in 10.0 mi WNW 23.0 mph 33.4 mph N/A   Clear
6:55 PM 43.9 °F 34.5 °F 19.2 °F 37% 29.77 in 10.0 mi WNW 25.3 mph 36.8 mph N/A   Clear
7:15 PM 40.8 °F 30.9 °F 17.1 °F 38% 29.78 in 10.0 mi WNW 23.0 mph 35.7 mph N/A   Clear
7:35 PM 38.5 °F 27.3 °F 16.7 °F 41% 29.80 in 10.0 mi WNW 25.3 mph 36.8 mph N/A   Clear
7:55 PM 37.4 °F 26.4 °F 16.5 °F 43% 29.81 in 10.0 mi WNW 23.0 mph 33.4 mph N/A   Clear
8:15 PM 35.6 °F 22.3 °F 14.4 °F 42% 29.83 in 10.0 mi West 31.1 mph 39.1 mph N/A   Clear
8:35 PM 32.5 °F 18.6 °F 13.6 °F 46% 29.86 in 10.0 mi WNW 28.8 mph 39.1 mph N/A   Clear
8:55 PM 32.0 °F 18.6 °F 13.6 °F 47% 29.88 in 10.0 mi WNW 25.3 mph 33.4 mph N/A   Clear
9:15 PM 32.0 °F 18.9 °F 14.0 °F 48% 29.90 in 10.0 mi WNW 24.2 mph 33.4 mph N/A   Scattered Clouds
9:35 PM 32.0 °F 19.8 °F 14.4 °F 48% 29.91 in 10.0 mi WNW 20.7 mph 28.8 mph N/A   Overcast
9:55 PM 32.0 °F 20.5 °F 14.9 °F 49% 29.92 in 10.0 mi WNW 18.4 mph 25.3 mph N/A   Overcast
10:15 PM 31.6 °F 18.7 °F 15.3 °F 51% 29.93 in 10.0 mi WNW 23.0 mph 28.8 mph N/A   Overcast
10:35 PM 32.0 °F 17.6 °F 15.6 °F 51% 29.94 in 10.0 mi WNW 29.9 mph 36.8 mph N/A   Overcast
10:55 PM 31.1 °F 18.0 °F 15.3 °F 52% 29.94 in 10.0 mi WNW 23.0 mph 33.4 mph N/A   Mostly Cloudy
11:15 PM 30.2 °F 15.4 °F 15.6 °F 55% 29.95 in 10.0 mi WNW 28.8 mph 35.7 mph N/A   Scattered Clouds
11:35 PM 30.2 °F 17.4 °F 15.6 °F 55% 29.96 in 10.0 mi WNW 20.7 mph 36.8 mph N/A   Scattered Clouds
11:55 PM 29.8 °F 16.0 °F 15.6 °F 56% 29.96 in 10.0 mi WNW 24.2 mph 34.5 mph N/A   Clear